FW4092 Weather Reports


time (UTC)temp
C
wind
direction
speed
KPH
gust
KPH
rain 1hr
cm
rain 24hr
cm
rain mn
cm
humidity
%
barometer
mb
20260903105440 7 281 0.0 0.0 0.00 0.36 0.00 85 1008.4
20260903104937 7 280 0.0 0.0 0.00 0.36 0.00 85 1008.3
20260903104436 7 281 0.0 1.6 0.00 0.36 0.00 85 1008.4
20260903103934 7 281 0.0 1.6 0.00 0.36 0.00 85 1008.5
20260903103431 7 281 0.0 1.6 0.00 0.36 0.00 84 1008.4
20260903102929 7 281 0.0 0.0 0.00 0.36 0.00 84 1008.5
20260903102427 7 281 0.0 0.0 0.00 0.36 0.00 84 1008.4
20260903101935 7 281 0.0 0.0 0.00 0.36 0.00 84 1008.4
20260903101431 7 281 0.0 0.0 0.00 0.36 0.00 84 1008.4
20260903100926 7 281 0.0 0.0 0.00 0.36 0.00 84 1008.4
20260903100424 8 281 0.0 0.0 0.00 0.36 0.00 83 1008.5
20260903095921 8 281 0.0 0.0 0.00 0.36 0.00 83 1008.4
20260903095418 8 281 0.0 0.0 0.00 0.36 0.00 83 1008.4
20260903094917 8 281 0.0 0.0 0.00 0.36 0.00 82 1008.3
20260903094417 8 281 0.0 0.0 0.00 0.36 0.00 82 1008.3
20260903093917 8 281 0.0 0.0 0.00 0.36 0.00 82 1008.2
20260903093417 8 281 0.0 1.6 0.00 0.36 0.00 82 1008.2
20260903092912 8 281 0.0 1.6 0.00 0.36 0.00 82 1008.2
20260903092639 8 281 0.0 0.0 0.00 0.36 0.00 81 1008.2
20260903091913 9 281 0.0 3.2 0.00 0.36 0.00 81 1008.3
20260903091412 9 281 0.0 3.2 0.00 0.36 0.00 80 1008.2
20260903091145 9 279 0.0 3.2 0.00 0.36 0.00 80 1008.4
20260903090414 9 279 0.0 3.2 0.00 0.36 0.00 79 1008.3
20260903085914 9 279 0.0 0.0 0.00 0.36 0.00 77 1008.3
20260903085413 9 279 0.0 3.2 0.00 0.36 0.00 78 1008.3
20260903084913 9 279 0.0 3.2 0.00 0.36 0.00 76 1008.3
20260903084413 9 279 0.0 4.8 0.00 0.36 0.00 77 1008.2
20260903083914 9 279 1.6 4.8 0.00 0.36 0.00 77 1008.3
20260903083413 9 289 1.6 9.7 0.00 0.36 0.00 77 1008.3
20260903082913 9 289 1.6 9.7 0.00 0.36 0.00 77 1008.2
20260903082413 9 350 0.0 3.2 0.00 0.36 0.00 78 1008.3
20260903081912 9 355 0.0 3.2 0.00 0.36 0.00 78 1008.4
20260903081411 9 351 1.6 6.4 0.00 0.36 0.00 77 1008.4
20260903080910 10 351 1.6 6.4 0.00 0.36 0.00 77 1008.3
20260903080420 10 336 1.6 6.4 0.00 0.36 0.00 77 1008.2
20260903075918 10 332 3.2 6.4 0.00 0.36 0.00 76 1008.1
20260903075409 10 310 3.2 12.9 0.00 0.36 0.00 77 1008.1
20260903074910 10 309 3.2 12.9 0.00 0.36 0.00 76 1008.2
20260903074408 10 296 4.8 16.1 0.00 0.36 0.00 77 1008.2
20260903073900 10 298 4.8 16.1 0.00 0.36 0.00 77 1008.2
20260903073354 10 332 4.8 14.5 0.00 0.36 0.00 77 1008.1
20260903073122 10 308 4.8 14.5 0.00 0.36 0.00 77 1008.2
20260903072342 10 286 6.4 14.5 0.00 0.36 0.00 77 1008.2
20260903071836 10 290 6.4 14.5 0.00 0.36 0.00 76 1008.2
20260903071330 10 259 6.4 16.1 0.00 0.36 0.00 76 1008.2
20260903070824 10 296 6.4 16.1 0.00 0.36 0.00 76 1008.0
20260903070319 10 286 4.8 16.1 0.00 0.36 0.00 76 1007.9
20260903065813 10 299 4.8 16.1 0.00 0.36 0.36 76 1007.9
20260903065308 10 277 6.4 16.1 0.00 0.36 0.36 77 1007.8
20260903064802 10 290 6.4 20.9 0.00 0.36 0.36 77 1007.7
20260903064259 10 247 3.2 20.9 0.00 0.36 0.36 79 1007.8
20260903063751 10 233 0.0 8.0 0.00 0.36 0.36 82 1007.8
20260903063522 10 203 1.6 8.0 0.00 0.36 0.36 82 1007.9
20260903062738 10 202 1.6 8.0 0.00 0.36 0.36 83 1007.8
20260903062241 10 133 0.0 3.2 0.00 0.36 0.36 85 1007.8
20260903061738 10 46 0.0 1.6 0.00 0.36 0.36 85 1007.8
20260903061239 10 46 0.0 3.2 0.00 0.36 0.36 84 1007.5
20260903060739 10 46 0.0 4.8 0.00 0.36 0.36 84 1007.5
20260903060239 10 44 0.0 4.8 0.00 0.36 0.36 85 1007.5
20260903060016 10 318 0.0 1.6 0.00 0.36 0.36 85 1007.7
20260903055306 10 318 1.6 4.8 0.03 0.36 0.36 85 1007.9
20260903055258 10 318 0.0 3.2 0.00 0.36 0.36 85 1007.8
20260903054234 10 318 1.6 4.8 0.03 0.36 0.36 85 1007.4
20260903053732 10 325 0.0 4.8 0.03 0.36 0.36 84 1007.5
20260903053233 10 307 0.0 0.0 0.03 0.36 0.36 83 1007.5
20260903052728 11 308 0.0 3.2 0.03 0.36 0.36 82 1007.2
20260903052226 11 308 1.6 6.4 0.03 0.36 0.36 82 1007.1
20260903051726 11 308 4.8 14.5 0.03 0.36 0.36 81 1007.1
20260903051226 11 290 4.8 16.1 0.03 0.36 0.36 81 1007.7
20260903051008 11 339 3.2 16.1 0.03 0.36 0.36 81 1007.9
20260903050225 11 296 3.2 11.3 0.03 0.36 0.36 81 1007.9
20260903045723 11 281 3.2 9.7 0.03 0.36 0.36 81 1007.7
20260903045232 11 291 3.2 8.0 0.03 0.36 0.36 81 1007.5
20260903044733 11 290 1.6 4.8 0.00 0.33 0.33 81 1007.4
20260903044224 11 290 1.6 6.4 0.00 0.33 0.33 81 1007.4
20260903043718 11 286 1.6 6.4 0.00 0.33 0.33 80 1007.3
20260903043210 11 241 1.6 6.4 0.00 0.33 0.33 79 1007.4
20260903042937 11 209 1.6 4.8 0.00 0.33 0.33 80 1007.3
20260903042159 11 207 3.2 8.0 0.00 0.33 0.33 79 1007.0
20260903041656 11 204 3.2 9.7 0.00 0.33 0.33 79 1006.9
20260903041154 11 191 1.6 9.7 0.00 0.33 0.33 79 1006.7
20260903040652 11 186 1.6 9.7 0.00 0.33 0.33 79 1006.7
20260903040152 11 192 3.2 9.7 0.00 0.33 0.33 79 1006.7
20260903035651 11 191 3.2 12.9 0.00 0.33 0.33 79 1006.5
20260903035152 11 179 3.2 12.9 0.00 0.33 0.33 79 1006.5
20260903034652 11 145 4.8 16.1 0.00 0.33 0.33 80 1006.5
20260903034152 11 213 4.8 16.1 0.00 0.33 0.33 80 1006.5
20260903033651 11 188 3.2 9.7 0.00 0.33 0.33 81 1006.5
20260903033430 11 183 3.2 9.7 0.00 0.33 0.33 80 1006.4
20260903032648 11 185 3.2 9.7 0.00 0.33 0.33 81 1006.2
20260903032148 11 180 3.2 14.5 0.00 0.33 0.33 80 1006.2
20260903031648 11 201 6.4 14.5 0.00 0.33 0.33 80 1006.4
20260903031147 11 187 6.4 14.5 0.00 0.33 0.33 80 1006.4
20260903030648 10 196 4.8 14.5 0.00 0.33 0.33 81 1006.4
20260903030147 10 201 4.8 12.9 0.00 0.33 0.33 81 1006.2
20260903025932 10 192 3.2 11.3 0.00 0.33 0.33 82 1006.1
20260903025148 10 191 1.6 8.0 0.00 0.33 0.33 82 1006.1
20260903024648 10 189 1.6 9.7 0.00 0.33 0.33 83 1006.1
20260903024146 10 150 1.6 9.7 0.00 0.33 0.33 83 1006.1
20260903023929 10 190 3.2 9.7 0.00 0.33 0.33 83 1006.1
20260903023146 10 148 3.2 14.5 0.00 0.33 0.33 84 1006.1
20260903022912 11 152 3.2 14.5 0.00 0.33 0.33 83 1006.0
20260903022209 11 145 4.8 16.1 0.03 0.33 0.33 83 1006.1
20260903022202 11 150 3.2 12.9 0.00 0.33 0.33 83 1006.2
20260903021144 11 158 6.4 24.1 0.03 0.33 0.33 82 1006.4
20260903020644 10 215 6.4 24.1 0.03 0.33 0.33 82 1005.9
20260903020412 10 147 3.2 11.3 0.05 0.33 0.33 90 1006.7
20260903015644 10 126 3.2 9.7 0.10 0.33 0.33 90 1006.6
20260903015424 10 125 3.2 9.7 0.13 0.33 0.33 90 1006.6
20260903014644 10 123 3.2 9.7 0.15 0.33 0.33 90 1006.5
20260903014143 10 143 1.6 6.4 0.18 0.33 0.33 89 1006.8
20260903013643 10 144 3.2 11.3 0.18 0.33 0.33 88 1006.7
20260903013422 10 180 4.8 11.3 0.20 0.33 0.33 86 1006.5
20260903012638 10 224 4.8 11.3 0.20 0.33 0.33 86 1006.2
20260903012131 10 194 4.8 14.5 0.20 0.33 0.33 87 1006.7
20260903011625 10 228 4.8 14.5 0.18 0.30 0.30 87 1007.1
20260903011119 10 240 6.4 12.9 0.18 0.30 0.30 87 1007.3
20260903010613 10 223 4.8 11.3 0.18 0.30 0.30 86 1007.4
20260903010109 11 227 6.4 12.9 0.15 0.28 0.28 85 1007.4
20260903005601 11 242 6.4 14.5 0.13 0.23 0.23 84 1007.5
20260903005056 11 259 8.0 24.1 0.10 0.20 0.20 82 1007.3
20260903004548 12 257 6.4 25.7 0.10 0.18 0.18 79 1007.1
20260903004043 12 263 4.8 25.7 0.08 0.15 0.15 80 1007.0
20260903003536 12 258 4.8 17.7 0.08 0.15 0.15 85 1007.1
20260903003031 12 298 3.2 17.7 0.05 0.13 0.13 85 1007.0
20260903002811 13 286 3.2 11.3 0.05 0.13 0.13 86 1006.9
20260903002019 13 286 3.2 11.3 0.05 0.13 0.13 85 1007.0
20260903001512 13 272 4.8 12.9 0.05 0.13 0.13 84 1006.8
20260903001015 13 258 6.4 12.9 0.05 0.13 0.13 83 1006.7
20260903000500 13 202 6.4 14.5 0.05 0.13 0.13 82 1006.6
20260902235955 13 196 8.0 17.7 0.03 0.10 0.13 81 1006.6
20260902235449 13 219 8.0 17.7 0.03 0.10 0.10 79 1006.5
20260902234947 14 219 6.4 16.1 0.00 0.08 0.10 77 1006.4
20260902234437 15 196 6.4 16.1 0.00 0.08 0.08 73 1006.1
20260902233931 15 209 6.4 16.1 0.00 0.08 0.08 72 1006.2
20260902233426 15 211 6.4 16.1 0.03 0.08 0.08 71 1006.0
20260902233158 15 178 6.4 16.1 0.03 0.08 0.08 72 1006.0
20260902232414 14 181 6.4 24.1 0.03 0.08 0.08 72 1006.0
20260902231909 14 198 6.4 24.1 0.03 0.08 0.08 72 1006.0
20260902231409 14 179 9.7 24.1 0.03 0.08 0.08 72 1006.0
20260902231404 14 178 8.0 24.1 0.03 0.08 0.08 72 1006.0
20260902230401 14 196 9.7 24.1 0.03 0.08 0.08 73 1006.0
20260902230356 14 142 8.0 24.1 0.03 0.08 0.08 72 1006.0
20260902225337 14 199 9.7 27.4 0.03 0.08 0.08 73 1005.9
20260902224831 14 206 9.7 27.4 0.03 0.08 0.08 73 1006.0
20260902224332 14 200 11.3 27.4 0.03 0.08 0.08 72 1006.0
20260902223833 14 132 11.3 27.4 0.03 0.08 0.08 72 1005.8
20260902223331 14 213 9.7 24.1 0.00 0.05 0.05 72 1005.6
20260902222830 14 178 9.7 27.4 0.00 0.05 0.05 72 1005.7
20260902222329 14 182 8.0 30.6 0.00 0.05 0.05 71 1005.7
20260902222109 14 196 9.7 30.6 0.00 0.05 0.05 71 1005.7
20260902221329 14 134 9.7 22.5 0.00 0.05 0.05 71 1005.7
20260902220829 13 221 8.0 22.5 0.00 0.05 0.05 72 1005.8
20260902220611 13 169 8.0 22.5 0.00 0.05 0.05 72 1005.8
20260902215829 13 146 6.4 19.3 0.00 0.05 0.05 73 1005.9
20260902215330 13 139 6.4 22.5 0.00 0.05 0.05 73 1006.0
20260902214830 13 163 8.0 22.5 0.00 0.05 0.05 72 1006.0
20260902214326 13 144 9.7 22.5 0.00 0.05 0.05 72 1005.9
20260902213824 13 179 8.0 22.5 0.00 0.05 0.05 72 1006.1
20260902213325 13 98 8.0 25.7 0.00 0.05 0.05 72 1006.1
20260902212825 13 120 8.0 25.7 0.00 0.05 0.05 73 1006.1
20260902212326 13 148 8.0 32.2 0.00 0.05 0.05 73 1006.2
20260902211835 13 144 8.0 32.2 0.00 0.05 0.05 73 1006.0
20260902211615 13 153 8.0 29.0 0.00 0.05 0.05 74 1006.2
20260902210833 12 161 8.0 27.4 0.00 0.05 0.05 75 1006.1
20260902210333 12 174 6.4 25.7 0.00 0.05 0.05 76 1006.2
20260902210109 12 133 8.0 25.7 0.00 0.05 0.05 77 1006.1
20260902205330 12 139 8.0 22.5 0.00 0.05 0.05 78 1006.1
20260902204831 12 180 8.0 27.4 0.00 0.05 0.05 78 1006.2
20260902204558 12 182 8.0 27.4 0.00 0.05 0.05 77 1006.4
20260902203842 12 174 8.0 24.1 0.00 0.05 0.05 76 1006.5
20260902203837 12 190 8.0 24.1 0.00 0.05 0.05 77 1006.5
20260902203056 12 159 9.7 20.9 0.00 0.05 0.05 76 1006.6
20260902202320 12 224 9.7 29.0 0.03 0.05 0.05 75 1006.6
20260902201821 12 177 9.7 29.0 0.03 0.05 0.05 76 1006.6
20260902201321 12 144 8.0 22.5 0.05 0.05 0.05 76 1006.6
20260902200821 12 160 9.7 22.5 0.05 0.05 0.05 77 1006.6
20260902200318 12 185 9.7 22.5 0.05 0.05 0.05 77 1006.7
20260902195838 12 191 6.4 22.5 0.05 0.05 0.05 78 1006.5
20260902195831 12 196 8.0 20.9 0.05 0.05 0.05 77 1006.6
20260902195034 12 171 6.4 22.5 0.05 0.05 0.05 80 1006.7
20260902194300 12 189 8.0 22.5 0.05 0.05 0.05 79 1006.7
20260902193754 12 211 8.0 22.5 0.05 0.05 0.05 81 1006.8
20260902193248 12 220 8.0 22.5 0.05 0.05 0.05 81 1006.7
20260902192742 12 178 8.0 20.9 0.03 0.03 0.05 80 1006.7
20260902192236 13 195 8.0 20.9 0.03 0.03 0.03 78 1006.7
20260902191732 13 142 6.4 20.9 0.03 0.03 0.03 77 1006.7
20260902191223 13 159 8.0 17.7 0.00 0.00 0.00 74 1006.8
20260902190718 13 181 11.3 22.5 0.00 0.00 0.00 70 1006.7
20260902190457 14 213 8.0 22.5 0.00 0.00 0.00 69 1006.5
20260902185936 14 164 6.4 20.9 0.00 0.00 0.00 70 1006.6
20260902185713 14 164 6.4 20.9 0.00 0.00 0.00 70 1006.6
20260902185200 14 198 6.4 20.9 0.00 0.00 0.00 66 1006.6
20260902184654 15 211 4.8 17.7 0.00 0.00 0.00 65 1006.5
20260902184148 15 188 4.8 17.7 0.00 0.00 0.00 63 1006.6
20260902183931 15 199 6.4 17.7 0.00 0.00 0.00 59 1006.5
20260902183136 16 148 6.4 20.9 0.00 0.00 0.00 57 1006.4
20260902182630 16 138 6.4 19.3 0.00 0.00 0.00 54 1006.4
20260902182418 16 176 6.4 17.7 0.00 0.00 0.00 54 1006.2
20260902182413 16 188 6.4 16.1 0.00 0.00 0.00 55 1006.4
20260902181356 15 140 6.4 19.3 0.00 0.00 0.00 55 1006.2
20260902180824 15 180 6.4 19.3 0.00 0.00 0.00 56 1006.2
20260902180609 15 180 6.4 19.3 0.00 0.00 0.00 56 1006.2
20260902180100 15 117 6.4 14.5 0.00 0.00 0.00 56 1006.4
20260902175554 15 186 8.0 20.9 0.00 0.00 0.00 57 1006.2
20260902175048 15 188 8.0 20.9 0.00 0.00 0.00 56 1006.4
20260902174543 15 144 8.0 20.9 0.00 0.00 0.00 56 1006.4
20260902174035 15 147 8.0 20.9 0.00 0.00 0.00 56 1006.4
20260902173530 15 134 8.0 27.4 0.00 0.00 0.00 56 1006.2
20260902173024 15 130 8.0 27.4 0.00 0.00 0.00 57 1006.4
20260902172519 16 186 8.0 20.9 0.00 0.00 0.00 57 1006.4
20260902172016 16 200 8.0 24.1 0.00 0.00 0.00 56 1006.4
20260902171510 16 163 9.7 24.1 0.00 0.00 0.00 56 1006.4
20260902171001 16 150 9.7 24.1 0.00 0.00 0.00 56 1006.4
20260902170454 16 212 8.0 19.3 0.00 0.00 0.00 57 1006.2
20260902165948 16 205 9.7 20.9 0.00 0.00 0.00 57 1006.2
20260902165442 16 185 8.0 22.5 0.00 0.00 0.00 57 1006.2
20260902164936 16 113 8.0 20.9 0.00 0.00 0.00 57 1006.4
20260902164718 16 150 9.7 20.9 0.00 0.00 0.00 58 1006.4
20260902164015 16 240 9.7 20.9 0.00 0.00 0.00 59 1006.4
20260902163959 16 182 9.7 20.9 0.00 0.00 0.00 58 1006.4
20260902162945 16 197 9.7 24.1 0.00 0.00 0.00 59 1006.6
20260902162445 16 250 9.7 24.1 0.00 0.00 0.00 59 1006.6
20260902161943 16 198 8.0 22.5 0.00 0.00 0.00 59 1006.6
20260902161714 16 193 8.0 22.5 0.00 0.00 0.00 58 1006.6
20260902160943 16 219 8.0 19.3 0.00 0.00 0.00 59 1006.5
20260902160442 16 189 8.0 17.7 0.00 0.00 0.00 59 1006.6
20260902160216 16 178 6.4 17.7 0.00 0.00 0.00 60 1006.7
20260902155439 16 174 6.4 17.7 0.00 0.00 0.00 60 1006.7
20260902154936 15 190 6.4 19.3 0.00 0.00 0.00 61 1006.7
20260902154437 15 182 6.4 19.3 0.00 0.00 0.00 61 1006.8
20260902153936 15 188 6.4 19.3 0.00 0.00 0.00 63 1006.8
20260902153434 15 186 6.4 19.3 0.00 0.00 0.00 63 1006.9
20260902152935 14 173 4.8 16.1 0.00 0.00 0.00 67 1006.9
20260902152433 13 174 3.2 12.9 0.00 0.00 0.00 70 1007.0
20260902151932 13 148 1.6 11.3 0.00 0.00 0.00 72 1007.0
20260902151432 12 145 0.0 1.6 0.00 0.00 0.00 73 1007.2
20260902150932 12 145 0.0 6.4 0.00 0.00 0.00 74 1007.3
20260902150431 12 145 1.6 6.4 0.00 0.00 0.00 75 1007.2
20260902145932 12 134 0.0 4.8 0.00 0.00 0.00 75 1007.2
20260902145429 11 138 0.0 1.6 0.00 0.00 0.00 76 1007.3
20260902144929 11 138 0.0 1.6 0.00 0.00 0.00 77 1007.3
20260902144431 11 138 0.0 1.6 0.00 0.00 0.00 78 1007.3
20260902143929 11 138 0.0 1.6 0.00 0.00 0.00 78 1007.3
20260902143431 11 138 0.0 3.2 0.00 0.00 0.00 79 1007.4
20260902142931 11 138 0.0 3.2 0.00 0.00 0.00 79 1007.4
20260902142430 11 138 0.0 0.0 0.00 0.00 0.00 80 1007.4
20260902141939 11 138 0.0 0.0 0.00 0.00 0.00 80 1007.4
20260902141721 11 138 0.0 0.0 0.00 0.00 0.00 79 1007.7
20260902140928 11 138 0.0 1.6 0.00 0.00 0.00 79 1007.7
20260902140427 10 138 0.0 3.2 0.00 0.00 0.00 80 1007.7
20260902135926 10 138 0.0 4.8 0.00 0.00 0.00 80 1007.5
20260902135426 10 138 0.0 4.8 0.00 0.00 0.00 80 1007.5
20260902135204 10 138 1.6 6.4 0.00 0.00 0.00 80 1007.5
20260902134421 10 139 1.6 6.4 0.00 0.00 0.00 80 1007.7
20260902133921 10 136 1.6 6.4 0.00 0.00 0.00 80 1007.5
20260902133415 10 140 1.6 6.4 0.00 0.00 0.00 80 1007.7
20260902132910 10 138 3.2 6.4 0.00 0.00 0.00 80 1007.8
20260902132403 10 144 1.6 6.4 0.00 0.00 0.00 81 1007.5
20260902131908 10 146 1.6 4.8 0.00 0.00 0.00 80 1007.8
20260902130844 10 149 0.0 4.8 0.00 0.00 0.00 80 1007.9
20260902130339 10 148 1.6 4.8 0.00 0.00 0.00 80 1007.9
20260902125833 10 148 1.6 4.8 0.00 0.00 0.00 79 1008.0
20260902125327 10 149 1.6 6.4 0.00 0.00 0.00 79 1008.1
20260902124821 10 150 1.6 6.4 0.00 0.00 0.00 79 1008.1
20260902124315 11 157 1.6 4.8 0.00 0.00 0.00 79 1008.1
20260902123809 11 157 1.6 4.8 0.00 0.00 0.00 79 1008.1
20260902123306 11 157 0.0 3.2 0.00 0.00 0.00 79 1008.1
20260902122758 11 157 0.0 0.0 0.00 0.00 0.00 80 1008.2
20260902122252 10 157 0.0 0.0 0.00 0.00 0.00 80 1008.1
20260902121745 10 157 0.0 1.6 0.00 0.00 0.00 80 1008.1
20260902121240 10 157 0.0 1.6 0.00 0.00 0.00 80 1008.2
20260902120740 10 158 0.0 1.6 0.00 0.00 0.00 80 1008.2
20260902120240 10 158 0.0 1.6 0.00 0.00 0.00 81 1008.2
20260902115740 10 158 0.0 3.2 0.00 0.00 0.00 81 1008.4
20260902115246 10 158 0.0 3.2 0.00 0.00 0.00 81 1008.5
20260902114736 10 158 0.0 4.8 0.00 0.00 0.00 82 1008.5
20260902114235 10 153 0.0 4.8 0.00 0.00 0.00 82 1008.5
20260902113735 10 153 0.0 3.2 0.00 0.00 0.00 82 1008.5
20260902113235 10 147 0.0 3.2 0.00 0.00 0.00 81 1008.5
20260902112735 10 146 1.6 3.2 0.00 0.00 0.00 81 1008.4
20260902112237 10 146 1.6 3.2 0.00 0.00 0.00 81 1008.3
20260902111736 10 142 1.6 4.8 0.00 0.00 0.00 80 1008.3
20260902111236 10 142 3.2 6.4 0.00 0.00 0.00 80 1008.4
20260902110734 10 142 3.2 8.0 0.00 0.00 0.00 79 1008.4
20260902110236 10 141 1.6 8.0 0.00 0.00 0.00 80 1008.4
20260902105744 10 144 1.6 4.8 0.00 0.00 0.00 80 1008.5
20260902105520 10 146 1.6 8.0 0.00 0.00 0.00 79 1008.5